[[{"header":{"parameterUnit":"m.s-1","parameterCategory":1,"la1":30.2991,"la2":30.254,"lo1":-89.0895,"lo2":-89.0444,"dy":0.0017,"dx":0.0017,"nx":28,"ny":28,"refTime":"2024-05-20T21:00:00:Z","depth":0,"parameterNumber":2,"parameterNumberName":"U-component_of_WINDS"},"data":[0,0,0,0,0,0,0,0,0,0,0,0,0,0,0,0,0,0,0,0,0,0,0,0,0,0,0,0,0,0,0,0,0,0,0,0,0,0,0,0,0,0,0,0,0,0,0,0,0,0,0,0,0,0,0,0,0,0,-0.4161,-0.4161,0,-0.4136,-0.4136,-0.4135,-0.4113,-0.4113,-0.4113,-0.4112,-0.4087,-0.4086,-0.4086,0,0,0,0,0,0,0,0,0,0,0,0,0,-0.4191,-0.4191,-0.4161,-0.4161,-0.4161,-0.4136,-0.4136,-0.4135,-0.4113,-0.4113,-0.4112,-0.4112,-0.4087,-0.4086,-0.4086,0,0,0,0,0,0,0,0,0,0,0,0,0,-0.4173,-0.4191,-0.4161,-0.4146,-0.4145,-0.4136,-0.4136,-0.4135,-0.4113,-0.4113,-0.4112,-0.4112,-0.4087,-0.4086,-0.4086,-0.4089,0,0,-0.4084,-0.4083,0,0,0,0,0,0,0,0,-0.4174,-0.4172,-0.4149,-0.4147,-0.4146,-0.4127,-0.4137,-0.412,-0.4113,-0.4125,-0.4112,-0.4112,-0.4101,-0.4099,-0.4095,-0.4088,-0.4087,-0.4084,-0.4083,-0.4083,-0.4083,0,0,0,0,0,0,0,-0.4176,-0.4173,-0.4151,-0.4149,-0.4147,-0.4142,-0.4139,-0.4134,-0.4115,-0.4124,-0.4122,-0.412,-0.41,-0.4096,-0.4094,-0.4087,-0.4084,-0.4083,-0.4083,-0.4082,-0.4084,-0.4084,0,0,0,0,0,0,-0.4179,-0.4174,-0.4152,-0.415,-0.4159,-0.4141,-0.4138,-0.4134,-0.4115,-0.4112,-0.412,-0.4119,-0.4097,-0.4095,-0.4093,-0.4097,-0.4083,-0.4082,-0.4082,-0.4083,-0.4084,-0.4084,0,0,0,0,0,0,-0.418,-0.4177,-0.4153,-0.4162,-0.4158,-0.4141,-0.4136,-0.4133,-0.4129,-0.4112,-0.4109,-0.4119,-0.4096,-0.4094,-0.4091,-0.4096,-0.4082,-0.4081,-0.4083,-0.4083,-0.4084,-0.4105,0,0,0,0,0,0,-0.4181,-0.4178,-0.4179,-0.4162,-0.4158,-0.4151,-0.4137,-0.4133,-0.4128,-0.4126,-0.4111,-0.4108,-0.4096,-0.4092,-0.409,-0.4095,-0.4081,-0.4082,-0.4083,-0.4084,-0.4104,-0.4106,-0.4109,0,0,0,0,0,-0.4182,-0.4185,-0.4179,-0.4176,-0.4159,-0.4151,-0.4149,-0.4135,-0.4129,-0.413,-0.4119,-0.4108,-0.4096,-0.4092,-0.409,-0.4094,-0.4082,-0.4083,-0.4084,-0.4103,-0.4106,-0.4109,0,0,0,0,0,0,-0.4202,-0.4183,-0.4175,-0.4173,-0.4164,-0.4147,-0.4148,-0.4139,-0.4131,-0.413,-0.4113,-0.411,-0.4109,-0.4101,-0.4097,-0.4098,-0.4087,-0.4088,-0.4103,-0.4105,-0.4108,-0.411,-0.408,0,0,0,0,0,-0.4207,-0.4202,-0.4185,-0.4185,-0.4181,-0.4166,-0.4162,-0.4152,-0.4142,-0.4138,-0.4127,-0.4118,-0.4112,-0.4108,-0.4102,-0.4103,-0.41,-0.4105,-0.4107,-0.4109,-0.411,-0.4111,-0.4114,-0.4087,-0.4087,-0.4087,0,0,-0.4216,-0.4204,-0.4202,-0.4189,-0.4181,-0.4177,-0.4162,-0.4158,-0.4155,-0.4137,-0.4134,-0.4126,-0.4114,-0.4114,-0.4113,-0.4107,-0.4117,-0.411,-0.4112,-0.4112,-0.4113,-0.4115,-0.4117,-0.4088,-0.4088,-0.4088,0,0,-0.423,-0.422,-0.422,-0.4212,-0.42,-0.419,-0.419,-0.4175,-0.4169,-0.4165,-0.4152,-0.4148,-0.4138,-0.4131,-0.4126,-0.4139,-0.4129,-0.4137,-0.415,-0.4151,-0.4153,-0.4155,-0.4161,-0.4163,-0.4138,-0.4138,-0.4138,0,-0.4242,-0.4236,-0.4221,-0.4218,-0.4213,-0.4197,-0.4197,-0.419,-0.4177,-0.4174,-0.4168,-0.4156,-0.4147,-0.4145,-0.4148,-0.4144,-0.4144,-0.4139,-0.4154,-0.4156,-0.4157,-0.4162,-0.4165,-0.4139,-0.4139,-0.4139,-0.4139,0,-0.4252,-0.4248,-0.4249,-0.4237,-0.4232,-0.4231,-0.4216,-0.4213,-0.4204,-0.4195,-0.4192,-0.4181,-0.4173,-0.4172,-0.4163,-0.4169,-0.4166,-0.4157,-0.4147,-0.4161,-0.4166,-0.4168,-0.4141,-0.4141,-0.414,-0.414,0,0,-0.4278,-0.4259,-0.426,-0.4254,-0.424,-0.4237,-0.4235,-0.4227,-0.4225,-0.4217,-0.4216,-0.4208,-0.42,-0.4195,-0.4185,-0.4186,-0.4199,-0.4177,-0.4177,-0.4182,-0.4206,-0.4213,-0.4216,-0.4192,-0.4192,-0.4192,-0.4207,0,-0.4291,-0.4287,-0.4274,-0.4274,-0.4271,-0.4256,-0.4254,-0.4246,-0.4238,-0.4234,-0.4224,-0.422,-0.4209,-0.4206,-0.4207,-0.4197,-0.4203,-0.4196,-0.4191,-0.4191,-0.4195,-0.4218,-0.4225,-0.424,-0.4209,-0.4209,-0.4209,0,-0.4305,-0.4298,-0.4298,-0.4285,-0.4283,-0.4282,-0.4274,-0.427,-0.4261,-0.4255,-0.425,-0.4239,-0.4237,-0.4227,-0.4225,-0.422,-0.4217,-0.4213,-0.4213,-0.4212,-0.4202,-0.4219,-0.4244,-0.4246,-0.4212,-0.4212,-0.4211,0,-0.4325,-0.4315,-0.4314,-0.431,-0.4295,-0.4295,-0.4289,-0.4279,-0.4276,-0.4269,-0.4267,-0.426,-0.4256,-0.4251,-0.424,-0.4233,-0.4239,-0.4228,-0.4235,-0.4235,-0.4237,-0.4237,-0.4263,-0.4234,-0.4234,-0.4234,-0.4234,0,-0.4341,-0.4341,-0.4324,-0.4323,-0.4324,-0.431,-0.4311,-0.4303,-0.4295,-0.4293,-0.4279,-0.4278,-0.4262,-0.4259,-0.425,-0.425,-0.4248,-0.4244,-0.4241,-0.4245,-0.4246,-0.4244,-0.4243,-0.4235,-0.4235,-0.4234,-0.4234,0,-0.4364,-0.4351,-0.435,-0.4336,-0.4332,-0.4334,-0.4322,-0.4321,-0.4312,-0.431,-0.4309,-0.4295,-0.4291,-0.4279,-0.4271,-0.4265,-0.4269,-0.4264,-0.4272,-0.4271,-0.4279,-0.4278,-0.4304,-0.4307,-0.4276,-0.4277,-0.4277,0,-0.4375,-0.4375,-0.4362,-0.436,-0.4354,-0.4351,-0.4347,-0.4334,-0.4331,-0.4321,-0.4321,-0.4316,-0.4312,-0.4306,-0.4295,-0.429,-0.4285,-0.4295,-0.4284,-0.4289,-0.4287,-0.4287,-0.4288,-0.4297,-0.4298,-0.4298,-0.4298,0,-0.4396,-0.439,-0.4386,-0.438,-0.4376,-0.4371,-0.4364,-0.4363,-0.4348,-0.4346,-0.4342,-0.4338,-0.4331,-0.4326,-0.432,-0.4313,-0.4304,-0.4302,-0.4303,-0.4307,-0.4313,-0.4311,-0.4279,-0.4301,-0.4301,-0.4301,-0.43,-0.43,-0.4414,-0.4414,-0.4405,-0.4401,-0.4395,-0.439,-0.4389,-0.438,-0.4376,-0.437,-0.4362,-0.4359,-0.4351,-0.4341,-0.4335,-0.4333,-0.4328,-0.433,-0.433,-0.4331,-0.4334,-0.4313,-0.4332,-0.4332,-0.4332,-0.4332,-0.4331,0,-0.4436,-0.4429,-0.4426,-0.4418,-0.4415,-0.4406,-0.4398,-0.4397,-0.4394,-0.4387,-0.4383,-0.4379,-0.4375,-0.4365,-0.436,-0.436,-0.4356,-0.4359,-0.436,-0.4359,-0.4338,-0.4338,-0.4363,-0.4363,-0.4363,-0.4363,-0.4363,-0.4363,-0.4447,-0.4447,-0.444,-0.4438,-0.4431,-0.4429,-0.4425,-0.4421,-0.4415,-0.4412,-0.4408,-0.4401,-0.4393,-0.4388,-0.4384,-0.4381,-0.438,-0.4386,-0.4382,-0.4363,-0.436,-0.4357,-0.4357,-0.4385,-0.4386,-0.4402,-0.4402,-0.4402]},{"header":{"parameterUnit":"m.s-1","parameterCategory":1,"la1":30.2991,"la2":30.254,"lo1":-89.0895,"lo2":-89.0444,"dy":0.0017,"dx":0.0017,"nx":28,"ny":28,"refTime":"2024-05-20T21:00:00:Z","depth":0,"parameterNumber":3,"parameterNumberName":"V-component_of_WINDS"},"data":[0,0,0,0,0,0,0,0,0,0,0,0,0,0,0,0,0,0,0,0,0,0,0,0,0,0,0,0,0,0,0,0,0,0,0,0,0,0,0,0,0,0,0,0,0,0,0,0,0,0,0,0,0,0,0,0,0,0,2.4241,2.424,0,2.4181,2.418,2.4179,2.4113,2.4112,2.4111,2.411,2.4047,2.4047,2.4046,0,0,0,0,0,0,0,0,0,0,0,0,0,2.4296,2.4295,2.4241,2.424,2.4239,2.4181,2.418,2.4179,2.4113,2.4112,2.4111,2.411,2.4048,2.4047,2.4046,0,0,0,0,0,0,0,0,0,0,0,0,0,2.4258,2.4295,2.4241,2.4199,2.4195,2.4181,2.418,2.4179,2.4114,2.4112,2.4111,2.4109,2.4048,2.4047,2.4046,2.4067,0,0,2.4042,2.4042,0,0,0,0,0,0,0,0,2.426,2.4256,2.4206,2.4202,2.4197,2.4153,2.4176,2.4142,2.4114,2.4144,2.411,2.4109,2.4084,2.4079,2.4071,2.4064,2.4062,2.4042,2.4041,2.4041,2.4041,0,0,0,0,0,0,0,2.4263,2.4258,2.4217,2.4205,2.42,2.4183,2.4176,2.417,2.4123,2.4142,2.4137,2.4131,2.4081,2.4073,2.4069,2.4061,2.4042,2.4041,2.404,2.404,2.4068,2.407,0,0,0,0,0,0,2.4272,2.4261,2.4219,2.4215,2.4226,2.4183,2.4175,2.4169,2.4123,2.4114,2.4132,2.4128,2.4075,2.4071,2.4067,2.4089,2.4041,2.404,2.4039,2.4067,2.4069,2.407,0,0,0,0,0,0,2.4273,2.4269,2.4221,2.4236,2.4229,2.4184,2.4177,2.4168,2.416,2.4115,2.4106,2.4132,2.4074,2.4069,2.4068,2.4086,2.4039,2.4038,2.4065,2.4067,2.407,2.4134,0,0,0,0,0,0,2.4275,2.427,2.4278,2.4237,2.4229,2.4224,2.4178,2.4168,2.4158,2.4152,2.4113,2.4105,2.4072,2.407,2.4067,2.4083,2.4037,2.4063,2.4066,2.4069,2.413,2.4138,2.4145,0,0,0,0,0,2.4277,2.4298,2.4279,2.4274,2.4238,2.4225,2.422,2.4182,2.416,2.4167,2.4139,2.4107,2.4085,2.407,2.4066,2.4083,2.4062,2.4065,2.4069,2.4126,2.4136,2.4144,0,0,0,0,0,0,2.4341,2.4292,2.427,2.4278,2.4256,2.4214,2.4222,2.4194,2.4177,2.4172,2.4126,2.4117,2.4122,2.4102,2.4087,2.4101,2.4069,2.4071,2.4114,2.4123,2.413,2.4135,2.4036,0,0,0,0,0,2.4357,2.4351,2.4308,2.4319,2.4309,2.4268,2.4261,2.4234,2.4209,2.4199,2.417,2.4147,2.4135,2.4128,2.4114,2.4127,2.4117,2.4136,2.4144,2.415,2.4153,2.4157,2.4165,2.4081,2.4081,2.4081,0,0,2.4388,2.436,2.4359,2.4331,2.4311,2.4305,2.426,2.4256,2.4252,2.4198,2.4196,2.4174,2.4145,2.4151,2.4152,2.4135,2.4174,2.4154,2.416,2.4159,2.4162,2.417,2.4177,2.4083,2.4083,2.4083,0,0,2.4441,2.442,2.4427,2.4408,2.4378,2.4351,2.4352,2.4314,2.4298,2.4295,2.4255,2.4248,2.4228,2.4209,2.4197,2.4244,2.4214,2.4241,2.428,2.4285,2.4292,2.4297,2.4314,2.432,2.4244,2.4244,2.4244,0,2.4483,2.4474,2.4434,2.4432,2.4421,2.4373,2.438,2.4363,2.433,2.4324,2.4305,2.4279,2.4256,2.4256,2.4268,2.426,2.426,2.4245,2.4294,2.4299,2.4304,2.4319,2.4325,2.4247,2.4247,2.4247,2.4246,0,2.4527,2.4521,2.453,2.45,2.449,2.4493,2.4453,2.4447,2.4421,2.4395,2.4393,2.4364,2.4343,2.4342,2.4316,2.4339,2.4329,2.4303,2.4269,2.4316,2.4329,2.4335,2.4252,2.4251,2.425,2.4249,0,0,2.4618,2.4567,2.4571,2.4557,2.4521,2.4515,2.4516,2.4496,2.4492,2.4471,2.447,2.4455,2.443,2.4416,2.4388,2.4393,2.4431,2.4366,2.4364,2.4379,2.4454,2.4474,2.4482,2.4411,2.4412,2.4413,2.4457,0,2.4665,2.4663,2.4628,2.4635,2.4629,2.4584,2.4584,2.4562,2.4538,2.4529,2.4502,2.4492,2.4461,2.4452,2.4455,2.4426,2.4446,2.4423,2.4409,2.4409,2.4417,2.4489,2.4509,2.4552,2.4462,2.4463,2.4463,0,2.4719,2.4703,2.471,2.4674,2.467,2.4671,2.465,2.4642,2.4616,2.4598,2.4583,2.4552,2.4549,2.4518,2.4513,2.4498,2.449,2.4475,2.4476,2.4473,2.4439,2.4487,2.4565,2.4571,2.4471,2.4471,2.447,0,2.4785,2.4764,2.4766,2.4755,2.4713,2.4715,2.4698,2.467,2.4661,2.4642,2.4636,2.4618,2.4607,2.4594,2.4558,2.4538,2.4557,2.4523,2.4542,2.4543,2.4547,2.4547,2.4625,2.4543,2.4543,2.4543,2.4543,0,2.4841,2.4847,2.4795,2.4796,2.4802,2.476,2.4767,2.4745,2.4721,2.4717,2.4676,2.4673,2.4626,2.4617,2.4588,2.4589,2.4584,2.457,2.4562,2.4573,2.4575,2.4567,2.4563,2.4545,2.4544,2.4544,2.4544,0,2.4915,2.488,2.4879,2.484,2.483,2.4836,2.4802,2.4801,2.4775,2.477,2.4766,2.4725,2.4713,2.4676,2.4654,2.4634,2.4643,2.4629,2.4652,2.4647,2.4668,2.4667,2.4743,2.475,2.4665,2.4666,2.4667,0,2.4953,2.4957,2.4918,2.4913,2.4897,2.4889,2.4879,2.4838,2.483,2.4801,2.4803,2.4788,2.4773,2.4755,2.4723,2.4706,2.4691,2.4719,2.4688,2.4699,2.4691,2.4691,2.4691,2.4725,2.4726,2.4727,2.4728,0,2.5024,2.5006,2.4994,2.4976,2.4966,2.495,2.4932,2.4929,2.4884,2.4876,2.4864,2.4852,2.483,2.4815,2.4793,2.4774,2.4744,2.4738,2.4741,2.4753,2.4766,2.4759,2.467,2.4736,2.4736,2.4735,2.4734,2.4734,2.508,2.5082,2.5055,2.5043,2.5025,2.5008,2.5006,2.4979,2.4968,2.4947,2.4924,2.4914,2.4887,2.4854,2.4838,2.4829,2.4813,2.4818,2.4819,2.4821,2.4826,2.4768,2.4825,2.4824,2.4824,2.4824,2.4824,0,2.5148,2.5129,2.5118,2.5094,2.5085,2.5057,2.5035,2.5029,2.5021,2.4999,2.4986,2.4971,2.4956,2.4923,2.4905,2.4904,2.489,2.4901,2.49,2.4897,2.4842,2.484,2.4913,2.4913,2.4913,2.4913,2.4913,2.4913,2.5183,2.5184,2.5163,2.5155,2.5135,2.5125,2.5115,2.5099,2.5082,2.5067,2.5055,2.5034,2.5007,2.4987,2.4972,2.4963,2.4958,2.4974,2.496,2.4909,2.4901,2.4892,2.4891,2.4973,2.4973,2.5015,2.5016,2.5016]}]]